Regional Weather Roundup
Issued by NWS State College, PA

Home | Current Version | Previous Version | Text Only | Print | Product List | Glossary On
Versions: 1 2 3 4 5 6 7 8 9 10 11 12 13 14 15 16 17 18 19 20 21 22 23 24 25 26 27 28 29 30 31 32 33 34 35 36 37 38 39 40 41 42 43 44 45 46 47 48 49 50
000
ASUS41 KCTP 231903
RWRCTP

REGIONAL WEATHER ROUNDUP
NATIONAL WEATHER SERVICE STATE COLLEGE PA
300 PM EDT WED JUL 23 2014

Note: "fair" indicates few or no clouds below 12,000 feet with no
significant weather and/or obstructions to visibility.

* = STATION THAT DOES NOT REPORT PRECIPITATION /E.G. RAIN...SNOW...ETC/
    THUNDER OR FOG.

PAZ002>004-007>009-013>016-020>023-029>032-232000-
WESTERN PENNSYLVANIA

CITY           SKY/WX    TMP DP  RH WIND       PRES   REMARKS
ERIE           CLOUDY    69  63  81 W6        29.99R
MEADVILLE      LGT RAIN  66  63  90 W8        30.01R
FRANKLIN*      CLOUDY    75  66  73 W10       29.99S
NEW CASTLE       N/A     78  68  71 W7G18     29.99S
BEAVER COUNTY  MOSUNNY   81  66  61 W12G20    29.99S
BUTLER*        PTSUNNY   77  66  69 W7        30.00R
PITTSBURGH INT PTSUNNY   83  67  58 NW15      29.97S
PITTSBURGH     CLOUDY    82  67  60 W13       29.96S
INDIANA*       MOSUNNY   82  70  65 W12       29.99S
LATROBE        PTSUNNY   82  73  74 W9        29.96F
WASHINGTON CO* PTSUNNY   82  70  65 W12G17    29.98F
$$

PAZ004>006-010>012-017>019-024>028-033>037-041-042-045-046-049>053-232000-
CENTRAL PENNSYLVANIA

CITY           SKY/WX    TMP DP  RH WIND       PRES   REMARKS
BRADFORD       CLOUDY    78  66  66 NW15G21   29.96S
DUBOIS         MOSUNNY   82  69  64 W13G20    29.95S
CLEARFIELD     LGT RAIN  75  68  78 N7        29.94R
JOHNSTOWN      PTSUNNY   78  67  68 W12       30.00S
ALTOONA        MOSUNNY   84  70  62 W13       29.94F
STATE COLLEGE  PTSUNNY   86  68  54 W14       29.91S
WILLIAMSPORT   MOSUNNY   89  67  47 SW9       29.83F
SELINSGROVE    PTSUNNY   85  73  67 S5        29.86S
FT INDIANTOWN  MOSUNNY   90  72  54 S9        29.86F HX  96
CAPITAL CITY   MOSUNNY   90  71  53 S7        29.84F HX  96
HARRISBURG     MOSUNNY   93  71  48 VRB6      29.83F HX 100
YORK           PTSUNNY   90  70  51 S10       29.86F HX  95
$$

PAZ038>040-043-044-047-048-054-055-060>062-067>071-232000-
EASTERN PENNSYLVANIA

CITY           SKY/WX    TMP DP  RH WIND       PRES   REMARKS
SCRANTON       MOSUNNY   90  65  43 W12G21    29.85F
MOUNT POCONO   PTSUNNY   82  69  64 SW13G20   29.93F
ALLENTOWN      MOSUNNY   90  71  53 W13       29.86F HX  96
QUAKERTOWN*    MOCLDY    90  72  55 S7        29.88F HX  96
READING        PTSUNNY   90  72  55 SW7       29.85F HX  97
LANCASTER      PTSUNNY   88  72  58 S10       29.86F
COATESVILLE    PTCLDY    86  73  66 S5        29.90F
POTTSTOWN      PTSUNNY   90  70  51 SW13G18   29.88F HX  95
BLUE BELL      MOSUNNY   91  73  55 S10       29.85F HX 100
DOYLESTOWN     MOSUNNY   87  72  60 S9        29.86F
WILLOW GROVE   NOT AVBL
NORTH PHILA    MOSUNNY   91  71  51 S10G18    29.88F HX  97
PHILADELPHIA   MOSUNNY   90  70  51 S12       29.86F HX  95
$$


USA.gov is the U.S. government's official web portal to all federal, state and local government web resources and services.